| time (UTC) | temp F | wind direction | speed MPH | gust MPH | rain 1hr in | rain 24hr in | rain mn in | humidity % | barometer mb |
| 20260904071704 | 49 | 192 | 2.0 | 3.0 | 0.00 | 0.20 | 0.00 | 96 | 1011.5 |
| 20260904071205 | 49 | 214 | 0.0 | 0.0 | 0.00 | 0.20 | 0.00 | 96 | 1011.5 |
| 20260904070704 | 49 | 214 | 0.0 | 2.0 | 0.00 | 0.20 | 0.00 | 96 | 1011.4 |
| 20260904065704 | 49 | 240 | 1.0 | 2.0 | 0.00 | 0.20 | 0.20 | 95 | 1011.5 |
| 20260904065203 | 49 | 240 | 1.0 | 2.0 | 0.00 | 0.20 | 0.20 | 96 | 1011.4 |
| 20260904064705 | 48 | 240 | 0.0 | 2.0 | 0.00 | 0.20 | 0.20 | 96 | 1011.4 |
| 20260904064204 | 48 | 240 | 1.0 | 2.0 | 0.00 | 0.20 | 0.20 | 95 | 1011.4 |
| 20260904063705 | 49 | 240 | 0.0 | 1.0 | 0.00 | 0.20 | 0.20 | 95 | 1011.4 |
| 20260904063206 | 49 | 240 | 0.0 | 0.0 | 0.00 | 0.20 | 0.20 | 95 | 1011.4 |
| 20260904062705 | 49 | 240 | 0.0 | 2.0 | 0.00 | 0.20 | 0.20 | 95 | 1011.4 |
| 20260904062204 | 50 | 240 | 0.0 | 1.0 | 0.00 | 0.20 | 0.20 | 95 | 1011.3 |
| 20260904061705 | 50 | 240 | 0.0 | 0.0 | 0.00 | 0.20 | 0.20 | 95 | 1011.3 |
| 20260904060705 | 50 | 240 | 0.0 | 0.0 | 0.00 | 0.20 | 0.20 | 95 | 1011.2 |
| 20260904060205 | 50 | 240 | 0.0 | 1.0 | 0.00 | 0.20 | 0.20 | 95 | 1011.2 |
| 20260904055704 | 51 | 240 | 0.0 | 0.0 | 0.00 | 0.20 | 0.20 | 95 | 1011.2 |
| 20260904053205 | 51 | 240 | 0.0 | 0.0 | 0.00 | 0.20 | 0.20 | 95 | 1011.1 |
| 20260904052705 | 51 | 240 | 0.0 | 0.0 | 0.00 | 0.20 | 0.20 | 94 | 1011.1 |
| 20260904052204 | 52 | 240 | 0.0 | 0.0 | 0.00 | 0.20 | 0.20 | 94 | 1011.1 |
| 20260904051705 | 52 | 240 | 0.0 | 0.0 | 0.00 | 0.20 | 0.20 | 94 | 1011.2 |
| 20260904051204 | 52 | 240 | 0.0 | 2.0 | 0.00 | 0.20 | 0.20 | 95 | 1011.2 |
| 20260904050705 | 52 | 240 | 1.0 | 1.0 | 0.00 | 0.20 | 0.20 | 94 | 1011.1 |
| 20260904050205 | 52 | 240 | 1.0 | 1.0 | 0.00 | 0.20 | 0.20 | 95 | 1011.1 |
| 20260904045705 | 52 | 240 | 0.0 | 2.0 | 0.00 | 0.20 | 0.20 | 94 | 1011.2 |
| 20260904045204 | 52 | 240 | 1.0 | 2.0 | 0.00 | 0.20 | 0.20 | 94 | 1011.2 |
| 20260904044705 | 52 | 240 | 0.0 | 0.0 | 0.00 | 0.20 | 0.20 | 93 | 1011.2 |
| 20260904044204 | 52 | 240 | 0.0 | 0.0 | 0.00 | 0.20 | 0.20 | 93 | 1011.2 |
| 20260904043704 | 52 | 240 | 0.0 | 0.0 | 0.00 | 0.20 | 0.20 | 94 | 1011.2 |
| 20260904043205 | 52 | 240 | 0.0 | 0.0 | 0.00 | 0.20 | 0.20 | 93 | 1011.1 |
| 20260904042704 | 52 | 240 | 0.0 | 0.0 | 0.00 | 0.20 | 0.20 | 92 | 1011.2 |
| 20260904042205 | 52 | 240 | 0.0 | 2.0 | 0.00 | 0.20 | 0.20 | 92 | 1011.2 |
| 20260904041706 | 53 | 240 | 2.0 | 3.0 | 0.00 | 0.20 | 0.20 | 91 | 1011.2 |
| 20260904041204 | 54 | 240 | 1.0 | 2.0 | 0.00 | 0.20 | 0.20 | 92 | 1011.2 |
| 20260904040704 | 54 | 240 | 0.0 | 1.0 | 0.00 | 0.20 | 0.20 | 92 | 1011.2 |
| 20260904040205 | 54 | 240 | 0.0 | 0.0 | 0.00 | 0.20 | 0.20 | 92 | 1011.1 |
| 20260904035705 | 54 | 240 | 0.0 | 1.0 | 0.00 | 0.20 | 0.20 | 91 | 1011.0 |
| 20260904035205 | 55 | 240 | 0.0 | 0.0 | 0.00 | 0.20 | 0.20 | 91 | 1011.1 |
| 20260904034205 | 55 | 240 | 0.0 | 0.0 | 0.00 | 0.20 | 0.20 | 91 | 1011.0 |
| 20260904033705 | 55 | 240 | 0.0 | 0.0 | 0.00 | 0.20 | 0.20 | 91 | 1010.9 |
| 20260904033205 | 55 | 240 | 0.0 | 0.0 | 0.00 | 0.20 | 0.20 | 91 | 1010.9 |
| 20260904032204 | 56 | 259 | 2.0 | 3.0 | 0.00 | 0.20 | 0.20 | 91 | 1010.7 |
| 20260904031704 | 56 | 234 | 2.0 | 2.0 | 0.00 | 0.20 | 0.20 | 90 | 1010.7 |
| 20260904031205 | 57 | 272 | 0.0 | 1.0 | 0.00 | 0.20 | 0.20 | 90 | 1010.7 |
| 20260904030705 | 57 | 272 | 0.0 | 1.0 | 0.00 | 0.20 | 0.20 | 89 | 1010.6 |
| 20260904025704 | 58 | 272 | 1.0 | 2.0 | 0.00 | 0.20 | 0.20 | 88 | 1010.5 |
| 20260904025203 | 59 | 272 | 0.0 | 2.0 | 0.00 | 0.20 | 0.20 | 87 | 1010.5 |
| 20260904024705 | 59 | 272 | 1.0 | 2.0 | 0.00 | 0.20 | 0.20 | 86 | 1010.4 |
| 20260904024203 | 59 | 272 | 0.0 | 0.0 | 0.00 | 0.20 | 0.20 | 86 | 1010.5 |
| 20260904023704 | 59 | 272 | 0.0 | 1.0 | 0.00 | 0.20 | 0.20 | 85 | 1010.4 |
| 20260904023204 | 60 | 272 | 1.0 | 2.0 | 0.00 | 0.20 | 0.20 | 85 | 1010.4 |
| 20260904022705 | 60 | 272 | 0.0 | 2.0 | 0.00 | 0.20 | 0.20 | 85 | 1010.3 |
| 20260904022204 | 60 | 272 | 0.0 | 1.0 | 0.00 | 0.20 | 0.20 | 85 | 1010.3 |
| 20260904021705 | 60 | 272 | 1.0 | 2.0 | 0.00 | 0.20 | 0.20 | 84 | 1010.2 |
| 20260904021203 | 60 | 272 | 1.0 | 2.0 | 0.00 | 0.20 | 0.20 | 83 | 1010.2 |
| 20260904020205 | 60 | 272 | 1.0 | 3.0 | 0.00 | 0.20 | 0.20 | 83 | 1010.2 |
| 20260904015704 | 60 | 272 | 2.0 | 3.0 | 0.00 | 0.20 | 0.20 | 83 | 1010.1 |
| 20260904015204 | 61 | 269 | 3.0 | 3.0 | 0.00 | 0.20 | 0.20 | 82 | 1010.1 |
| 20260904014704 | 62 | 230 | 3.0 | 6.0 | 0.00 | 0.20 | 0.20 | 83 | 1010.0 |
| 20260904014204 | 62 | 231 | 3.0 | 6.0 | 0.00 | 0.20 | 0.20 | 82 | 1010.0 |
| 20260904013704 | 62 | 246 | 2.0 | 5.0 | 0.00 | 0.20 | 0.20 | 82 | 1010.0 |
| 20260904013206 | 62 | 264 | 3.0 | 5.0 | 0.00 | 0.20 | 0.20 | 83 | 1010.0 |
| 20260904012704 | 62 | 280 | 3.0 | 5.0 | 0.00 | 0.20 | 0.20 | 84 | 1010.0 |
| 20260904012203 | 62 | 304 | 2.0 | 3.0 | 0.00 | 0.20 | 0.20 | 84 | 1010.0 |
| 20260904011705 | 62 | 293 | 3.0 | 6.0 | 0.00 | 0.20 | 0.20 | 84 | 1009.9 |
| 20260904010704 | 62 | 323 | 3.0 | 5.0 | 0.00 | 0.20 | 0.20 | 85 | 1009.9 |
| 20260904010204 | 61 | 305 | 3.0 | 7.0 | 0.00 | 0.20 | 0.20 | 85 | 1009.9 |
| 20260904005705 | 61 | 334 | 2.0 | 6.0 | 0.00 | 0.20 | 0.20 | 85 | 1009.8 |
| 20260904005204 | 61 | 324 | 3.0 | 6.0 | 0.00 | 0.20 | 0.20 | 85 | 1009.8 |
| 20260904004705 | 61 | 319 | 4.0 | 8.0 | 0.00 | 0.20 | 0.20 | 86 | 1009.8 |
| 20260904004204 | 61 | 326 | 2.0 | 6.0 | 0.00 | 0.20 | 0.20 | 87 | 1009.7 |
| 20260904003703 | 61 | 302 | 1.0 | 3.0 | 0.00 | 0.20 | 0.20 | 88 | 1009.7 |
| 20260904003204 | 61 | 312 | 2.0 | 3.0 | 0.00 | 0.20 | 0.20 | 87 | 1009.8 |
| 20260904002703 | 61 | 355 | 1.0 | 3.0 | 0.00 | 0.20 | 0.20 | 88 | 1009.8 |
| 20260904002205 | 61 | 5 | 1.0 | 3.0 | 0.00 | 0.20 | 0.20 | 89 | 1009.8 |
| 20260904001704 | 60 | 24 | 2.0 | 5.0 | 0.00 | 0.20 | 0.20 | 88 | 1009.8 |
| 20260904001204 | 61 | 28 | 2.0 | 5.0 | 0.00 | 0.20 | 0.20 | 88 | 1009.8 |
| 20260903235704 | 62 | 56 | 4.0 | 6.0 | 0.00 | 0.20 | 0.20 | 87 | 1009.7 |
| 20260903234706 | 63 | 29 | 3.0 | 5.0 | 0.00 | 0.20 | 0.20 | 83 | 1009.7 |
| 20260903233704 | 63 | 118 | 1.0 | 3.0 | 0.00 | 0.20 | 0.20 | 83 | 1009.7 |
| 20260903233204 | 63 | 76 | 2.0 | 3.0 | 0.00 | 0.20 | 0.20 | 83 | 1009.7 |
| 20260903232703 | 63 | 5 | 2.0 | 3.0 | 0.00 | 0.20 | 0.20 | 85 | 1009.7 |
| 20260903232204 | 63 | 301 | 2.0 | 3.0 | 0.00 | 0.20 | 0.20 | 85 | 1009.8 |
| 20260903230705 | 61 | 339 | 0.0 | 3.0 | 0.00 | 0.20 | 0.20 | 90 | 1010.0 |
| 20260903230205 | 61 | 301 | 0.0 | 3.0 | 0.00 | 0.20 | 0.20 | 92 | 1010.0 |
| 20260903225704 | 61 | 319 | 1.0 | 2.0 | 0.01 | 0.20 | 0.20 | 92 | 1010.1 |